Weather History for KVER - January, 2013

Change the Weather History Date:

Saturday, January 5, 2013

  Actual Average (KDMO) Record (KDMO)
Temperature  
Mean Temperature 33 °F 31 °F  
Max Temperature 40 °F 40 °F 69 °F (1956)
Min Temperature 26 °F 23 °F -12 °F (1940)
Degree Days  
Heating Degree Days 32 34  
Month to date heating degree days 168  
Since 1 July heating degree days 1949  
Cooling Degree Days 0 0  
Month to date cooling degree days 0  
Year to date cooling degree days 0  
Moisture  
Dew Point 28 °F    
Average Humidity 76    
Maximum Humidity 83    
Minimum Humidity 68    
Precipitation  
Precipitation 0.00 in 0.06 in 1.69 in (1955)
Month to date precipitation 0.26  
Year to date precipitation 0.26  
Sea Level Pressure  
Sea Level Pressure 30.18 in    
Wind  
Wind Speed 6 mph (SSW)    
Max Wind Speed 9 mph    
Max Gust Speed -    
Visibility 10 miles    
Events Rain    
T = Trace of Precipitation, MM = Missing Value Source: NWS Daily Summary

Daily Weather History Graph

Daily Weather History Graph

Search for Another Location

Airport or City:

Trip Planner

Search our weather history database for the weather conditions in past years. The results will help you decide how hot, cold, wet, or windy it might be!

Date:

Astronomy

Jan. 05, 2013 Rise Set
Actual Time 7:29 AM CST 5:03 PM CST
Civil Twilight 7:00 AM CST 5:32 PM CST
Nautical Twilight 6:26 AM CST 6:06 PM CST
Astronomical Twilight 5:54 AM CST 6:38 PM CST
Moon 12:38 AM CST (1/5) 11:51 AM CST (1/5)
Length of Visible Light 10h 32m
Length of Day
9h 33m
Last Quarter, 44% of the Moon is Illuminated
Jan 5
Last Quarter
Jan 11
New
Jan 18
First Quarter
Jan 26
Full
Feb 3
Last Quarter

Hourly Weather History & Observations

Time (CST) Temp. Windchill Dew Point Humidity Pressure Visibility Wind Dir Wind Speed Gust Speed Precip Events Conditions
12:15 AM 28.9 °F 23.9 °F 21.2 °F 73% 30.27 in 10.0 mi South 4.6 mph - N/A   Clear
12:35 AM 28.9 °F 23.9 °F 21.2 °F 73% 30.27 in 10.0 mi South 4.6 mph - N/A   Clear
12:55 AM 28.6 °F 23.5 °F 21.2 °F 74% 30.27 in 10.0 mi South 4.6 mph - N/A   Clear
1:15 AM 28.6 °F 24.8 °F 21.0 °F 73% 30.27 in 10.0 mi South 3.5 mph - N/A   Clear
1:35 AM 28.4 °F 24.6 °F 21.2 °F 74% 30.26 in 10.0 mi South 3.5 mph - N/A   Clear
1:55 AM 28.4 °F 23.3 °F 21.2 °F 74% 30.26 in 10.0 mi South 4.6 mph - N/A   Clear
2:15 AM 27.9 °F 22.6 °F 21.0 °F 75% 30.26 in 10.0 mi South 4.6 mph - N/A   Clear
2:35 AM 27.5 °F 22.2 °F 21.2 °F 77% 30.25 in 10.0 mi South 4.6 mph - N/A   Clear
2:55 AM 27.5 °F 22.2 °F 21.2 °F 77% 30.25 in 10.0 mi South 4.6 mph - N/A   Clear
3:15 AM 27.7 °F 22.4 °F 21.0 °F 76% 30.25 in 10.0 mi South 4.6 mph - N/A   Clear
3:35 AM 26.8 °F 22.8 °F 21.0 °F 79% 30.25 in 10.0 mi South 3.5 mph - N/A   Clear
3:55 AM 26.6 °F 21.2 °F 20.8 °F 79% 30.25 in 10.0 mi South 4.6 mph - N/A   Clear
4:15 AM 27.0 °F 23.0 °F 21.0 °F 78% 30.24 in 10.0 mi South 3.5 mph - N/A   Clear
4:35 AM 27.1 °F 20.7 °F 21.2 °F 78% 30.24 in 10.0 mi South 5.8 mph - N/A   Clear
4:55 AM 26.8 °F 20.2 °F 21.2 °F 79% 30.24 in 10.0 mi SSE 5.8 mph - N/A   Clear
5:15 AM 27.3 °F 19.9 °F 21.4 °F 78% 30.25 in 10.0 mi South 6.9 mph - N/A   Clear
5:35 AM 27.1 °F 19.7 °F 21.4 °F 79% 30.25 in 10.0 mi South 6.9 mph - N/A   Scattered Clouds
5:55 AM 28.0 °F 21.7 °F 22.1 °F 78% 30.25 in 10.0 mi SSE 5.8 mph - N/A   Overcast
6:15 AM 28.8 °F 21.7 °F 23.0 °F 79% 30.25 in 10.0 mi SSE 6.9 mph - N/A   Overcast
6:35 AM 29.7 °F 22.0 °F 23.7 °F 79% 30.24 in 10.0 mi SSE 8.1 mph - N/A   Overcast
6:55 AM 31.1 °F 24.5 °F 24.1 °F 75% 30.25 in 10.0 mi SW 6.9 mph - N/A   Overcast
7:15 AM 32.4 °F 24.6 °F 24.8 °F 74% 30.26 in 10.0 mi SSE 9.2 mph - N/A   Overcast
7:35 AM 32.7 °F 27.3 °F 25.5 °F 75% 30.25 in 10.0 mi WSW 5.8 mph - N/A   Overcast
7:55 AM 34.2 °F 30.0 °F 26.8 °F 74% 30.25 in 10.0 mi SW 4.6 mph - N/A   Overcast
8:15 AM 34.7 °F 28.8 °F 27.9 °F 76% 30.25 in 10.0 mi SSE 6.9 mph - N/A   Overcast
8:35 AM 34.5 °F 29.4 °F 28.4 °F 78% 30.26 in 10.0 mi South 5.8 mph - N/A   Overcast
8:55 AM 35.4 °F 31.5 °F 28.4 °F 76% 30.26 in 10.0 mi South 4.6 mph - N/A   Overcast
9:15 AM 36.1 °F 33.5 °F 28.0 °F 72% 30.25 in 10.0 mi SSW 3.5 mph - N/A   Overcast
9:55 AM 36.9 °F 32.2 °F 28.8 °F 72% 30.24 in 10.0 mi South 5.8 mph - N/A   Overcast
10:15 AM 38.3 °F 33.9 °F 29.8 °F 72% 30.23 in 10.0 mi South 5.8 mph - N/A   Overcast
10:55 AM 39.4 °F 35.2 °F 30.0 °F 69% 30.22 in 10.0 mi South 5.8 mph - N/A   Overcast
11:15 AM 39.4 °F 34.5 °F 29.7 °F 68% 30.20 in 10.0 mi South 6.9 mph - N/A   Overcast
11:35 AM 39.2 °F 35.0 °F 29.5 °F 68% 30.19 in 10.0 mi South 5.8 mph - N/A   Light Drizzle
11:55 AM 38.8 °F 33.2 °F 30.4 °F 72% 30.18 in 10.0 mi South 8.1 mph - N/A Rain Rain
12:15 PM 37.8 °F 35.3 °F 31.1 °F 77% 30.18 in 10.0 mi SSW 3.5 mph - N/A   Drizzle
12:35 PM 37.6 °F 34.0 °F 31.8 °F 80% 30.16 in 10.0 mi SSW 4.6 mph - N/A Rain Light Rain
12:55 PM 37.9 °F 33.5 °F 32.5 °F 81% 30.15 in 10.0 mi SSW 5.8 mph - N/A Rain Light Rain
1:15 PM 37.9 °F 32.1 °F 33.1 °F 83% 30.13 in 10.0 mi SSW 8.1 mph - N/A   Light Drizzle
1:35 PM 37.8 °F 32.5 °F 33.1 °F 83% 30.13 in 10.0 mi South 6.9 mph - N/A   Overcast
1:55 PM 37.6 °F 31.6 °F 32.9 °F 83% 30.12 in 10.0 mi South 8.1 mph - N/A   Overcast
2:15 PM 37.9 °F 32.1 °F 32.9 °F 82% 30.11 in 10.0 mi South 8.1 mph - N/A   Overcast
2:35 PM 38.3 °F 32.5 °F 32.5 °F 80% 30.10 in 10.0 mi South 8.1 mph - N/A   Overcast
2:55 PM 39.0 °F 33.4 °F 32.9 °F 79% 30.09 in 10.0 mi South 8.1 mph - N/A   Overcast
3:15 PM 39.9 °F 33.9 °F 32.9 °F 76% 30.08 in 10.0 mi South 9.2 mph - N/A   Mostly Cloudy
3:35 PM 40.1 °F 34.7 °F 32.2 °F 73% 30.10 in 10.0 mi South 8.1 mph - N/A   Scattered Clouds
3:55 PM 39.9 °F 35.8 °F 32.0 °F 73% 30.10 in 10.0 mi South 5.8 mph - N/A   Mostly Cloudy
4:15 PM 39.4 °F 37.2 °F 32.0 °F 75% 30.11 in 10.0 mi SSW 3.5 mph - N/A   Overcast
4:55 PM 39.2 °F 35.0 °F 32.0 °F 75% 30.11 in 10.0 mi SSW 5.8 mph - N/A   Overcast
5:15 PM 39.2 °F 33.6 °F 32.0 °F 75% 30.12 in 10.0 mi SSW 8.1 mph - N/A   Overcast
5:35 PM 39.2 °F - 31.8 °F 75% 30.11 in 10.0 mi Calm Calm - N/A   Overcast
6:15 PM 39.2 °F 35.0 °F 31.6 °F 74% 30.12 in 10.0 mi SSW 5.8 mph - N/A   Overcast
6:35 PM 39.2 °F 33.6 °F 31.3 °F 73% 30.11 in 10.0 mi SSW 8.1 mph - N/A   Overcast
6:55 PM 38.8 °F 33.8 °F 31.1 °F 74% 30.11 in 10.0 mi SSW 6.9 mph - N/A   Mostly Cloudy
7:15 PM 38.3 °F 31.9 °F 30.9 °F 75% 30.12 in 10.0 mi SSW 9.2 mph - N/A   Clear
7:35 PM 38.3 °F 32.5 °F 30.9 °F 75% 30.11 in 10.0 mi SSW 8.1 mph - N/A   Mostly Cloudy
8:15 PM 37.8 °F 32.5 °F 30.9 °F 76% 30.11 in 10.0 mi SSW 6.9 mph - N/A   Scattered Clouds
8:35 PM 37.6 °F 33.1 °F 30.9 °F 77% 30.11 in 10.0 mi SSW 5.8 mph - N/A   Overcast
8:55 PM 37.8 °F 34.2 °F 31.1 °F 77% 30.11 in 10.0 mi SSW 4.6 mph - N/A   Overcast
9:15 PM 38.1 °F 32.9 °F 31.1 °F 76% 30.11 in 10.0 mi WSW 6.9 mph - N/A   Overcast
9:35 PM 38.3 °F 31.9 °F 31.1 °F 75% 30.11 in 10.0 mi SW 9.2 mph - N/A   Overcast
9:55 PM 38.3 °F 31.9 °F 30.9 °F 75% 30.11 in 10.0 mi WSW 9.2 mph - N/A   Scattered Clouds
10:15 PM 37.9 °F 32.1 °F 30.7 °F 75% 30.11 in 10.0 mi WSW 8.1 mph - N/A   Clear
10:35 PM 37.4 °F 30.8 °F 30.6 °F 76% 30.12 in 10.0 mi WSW 9.2 mph - N/A   Clear
10:55 PM 37.0 °F 30.4 °F 30.2 °F 76% 30.12 in 10.0 mi WSW 9.2 mph - N/A   Clear
11:15 PM 36.3 °F 30.1 °F 29.8 °F 77% 30.12 in 10.0 mi West 8.1 mph - N/A   Clear
11:35 PM 35.8 °F 29.4 °F 29.3 °F 77% 30.12 in 10.0 mi West 8.1 mph - N/A   Clear
11:55 PM 35.1 °F 28.6 °F 28.6 °F 77% 30.13 in 10.0 mi West 8.1 mph - N/A   Clear